Temperature
11 10 10 10 10 9 9 9 9 9 9 9 9 8 8 8 8 8 8 8 9 9 9 9 9 9 9 9 9 9 9 8 8 8 8 8 9 9 9 9 9 9 9
11 10 10 9 9 9 9 9 9 9 8 8 8 8 8 8 8 8 8 8 8 8 8 8 8 8 8 8 8 8 8 8 8 8 8 7 8 8 8 8 9 9 9
10 10 9 9 9 9 8 8 8 8 8 8 8 8 7 7 7 7 8 8 8 8 8 8 8 8 8 8 8 8 8 8 8 8 8 8 7 7 7 8 8 8 8
10 9 9 8 8 8 8 8 8 8 8 7 7 7 7 7 7 7 7 7 7 7 8 8 8 8 8 8 8 8 8 8 8 8 8 8 8 7 7 7 7 7 7
10 9 8 8 8 8 8 8 8 8 7 7 7 7 7 7 7 7 7 7 7 7 7 7 7 7 7 7 7 7 7 7 7 7 7 7 7 7 7 7 7 7 7
9 9 8 8 7 7 7 7 7 7 7 7 7 6 6 6 6 6 6 7 7 7 7 7 7 7 7 7 7 7 7 7 7 7 7 7 7 7 7 7 7 7 7
9 8 8 7 7 7 7 7 7 7 7 6 6 6 6 6 6 6 6 6 6 7 7 7 7 7 7 7 7 7 7 7 7 7 7 7 7 7 7 7 7 6 6
8 8 7 7 7 7 6 6 6 6 6 6 6 6 6 6 6 6 6 6 6 6 6 6 6 6 6 6 6 6 6 6 6 6 6 6 6 6 6 6 6 6 6
8 7 7 7 6 6 6 6 6 6 6 6 6 6 5 5 5 5 5 6 6 6 6 6 6 6 6 6 6 6 6 6 6 6 6 6 6 6 6 6 6 6 5
7 6 6 6 6 6 5 5 5 5 5 5 5 5 5 5 5 5 5 5 5 6 6 6 6 6 6 5 5 5 5 5 5 5 5 5 5 6 5 5 5 5 5
6 6 5 5 5 5 5 5 5 5 5 5 5 5 5 5 5 5 5 5 5 5 5 5 5 5 5 5 5 5 5 5 5 5 5 5 5 5 5 5 5 5 5
6 5 5 5 4 4 4 4 4 4 4 4 4 4 4 4 4 4 4 4 4 4 5 5 5 5 5 5 5 5 5 5 5 5 5 5 5 5 5 5 5 5 5
5 5 4 4 4 4 4 4 4 4 4 4 4 4 4 4 4 4 4 4 4 4 4 4 4 4 4 4 4 4 4 4 4 4 4 4 4 4 4 4 4 4 4
5 4 4 3 3 3 3 3 3 3 3 3 3 4 4 4 4 4 4 4 4 4 4 4 4 4 4 4 4 4 4 4 4 4 4 4 4 4 4 4 4 4 4
4 3 3 3 3 3 3 3 3 3 3 3 3 3 3 3 3 3 3 3 3 3 3 3 3 3 3 3 3 3 3 3 3 3 3 3 3 3 3 3 3 3 3
3 3 2 2 2 2 2 2 2 2 2 2 3 3 3 3 3 3 3 3 3 3 3 3 3 3 3 3 3 3 3 3 3 3 3 3 3 3 3 3 3 3 3
3 2 2 2 2 1 2 2 2 2 2 2 2 2 2 2 2 2 2 2 2 2 2 2 2 2 2 2 2 2 2 2 2 2 2 2 2 2 2 2 2 2 2
2 1 1 1 1 1 1 1 1 1 1 1 1 1 1 2 2 2 1 1 1 1 1 1 1 1 1 1 1 1 1 1 1 1 1 2 2 2 2 2 2 2 1
1 1 1 1 1 1 1 1 1 1 1 1 1 1 1 1 1 1 1 1 1 1 1 1 1 1 1 1 1 1 1 1 1 1 1 1 1 1 1 1 1 1 1
0 0 0 0 0 0 0 0 0 0 0 0 0 0 0 0 0 0 0 0 0 0 0 -0 0 -0 -0 -0 0 0 0 0 0 0 0 0 0 0 0 0 0 0 0
-1 -0 -0 -0 -0 -0 -1 -1 -1 -1 -0 -0 -0 -0 -0 -0 -0 -0 -0 -0 -0 -0 -0 -0 -0 -1 -1 -0 -0 -0 -1 -1 -0 -0 -0 -0 -0 -0 -0 -0 -0 -0 -0
-1 -1 -1 -1 -1 -1 -1 -1 -1 -1 -1 -1 -1 -1 -1 -1 -1 -1 -1 -1 -1 -1 -1 -1 -1 -1 -1 -1 -1 -1 -1 -1 -1 -1 -1 -1 -1 -1 -1 -1 -1 -1 -1
-2 -2 -2 -2 -2 -2 -2 -2 -2 -2 -2 -1 -1 -1 -1 -1 -1 -2 -2 -2 -2 -2 -2 -2 -2 -2 -2 -2 -2 -2 -2 -2 -2 -1 -1 -1 -1 -1 -1 -1 -1 -1 -1
-3 -3 -3 -3 -3 -3 -3 -2 -2 -2 -2 -2 -2 -2 -2 -2 -2 -2 -2 -2 -2 -2 -2 -2 -2 -3 -2 -2 -2 -2 -2 -2 -2 -2 -2 -2 -2 -2 -2 -2 -2 -2 -2
-4 -4 -4 -4 -4 -3 -3 -3 -3 -3 -3 -3 -3 -3 -3 -3 -3 -3 -3 -3 -3 -3 -3 -3 -3 -3 -3 -3 -3 -3 -3 -3 -2 -2 -2 -2 -2 -2 -3 -3 -3 -3 -3
-4 -4 -4 -4 -4 -4 -4 -4 -4 -4 -4 -4 -4 -4 -4 -4 -4 -4 -3 -3 -3 -3 -3 -3 -3 -3 -3 -3 -3 -3 -3 -3 -3 -3 -3 -3 -3 -3 -3 -4 -4 -4 -4
Wind_Speed
2 3 3 3 2 2 3 3 3 3 3 2 2 2 2 1 0 1 2 3 3 3 3 2 2 3 3 3 3 3 4 3 3 3 2 2 2 2 2 2 3 3 4
2 3 3 3 2 2 2 2 3 2 2 2 2 1 2 1 1 1 1 2 2 3 3 3 2 2 3 3 3 3 3 2 3 2 2 1 1 1 1 1 1 2 3
2 3 3 2 2 1 2 2 2 2 3 3 2 2 1 1 1 1 1 0 1 2 2 3 3 3 3 3 4 4 4 4 3 2 2 3 3 1 1 1 1 1 1
3 4 3 3 2 1 2 2 2 2 2 3 3 3 3 2 2 2 1 1 1 2 2 3 3 3 3 3 4 3 3 4 4 2 0 1 2 2 1 1 1 1 1
3 4 4 3 3 3 3 2 2 1 2 3 3 2 2 1 1 2 2 2 1 2 2 3 3 3 2 3 3 3 3 3 3 2 1 1 1 1 2 2 2 1 1
3 4 4 4 4 4 3 2 2 1 2 2 2 2 2 1 1 2 2 2 1 1 2 2 3 3 3 3 3 3 4 3 3 2 2 2 2 2 2 1 1 2 2
4 4 4 4 3 3 2 2 1 1 1 2 1 1 2 2 2 2 2 2 2 1 3 2 2 3 3 3 3 3 3 3 4 3 3 2 2 2 1 2 2 1 1
3 4 4 4 3 3 2 2 2 1 1 2 1 1 2 1 1 1 2 2 2 2 3 3 3 3 3 4 4 3 3 3 4 4 3 2 2 2 2 2 2 1 1
4 4 4 4 3 3 2 2 1 1 0 1 1 1 2 2 1 1 1 1 1 2 2 2 3 3 3 4 4 4 4 4 4 4 4 3 2 2 2 2 3 4 3
4 4 4 4 3 3 3 3 2 2 1 1 1 1 1 2 1 2 1 1 1 2 2 3 3 3 3 3 4 3 4 4 4 4 4 4 3 3 3 3 3 3 3
4 4 4 3 3 3 3 2 2 2 2 1 1 1 1 1 1 1 1 2 1 2 2 3 3 3 3 3 3 3 4 4 4 4 5 5 4 3 3 3 3 3 3
4 4 4 3 3 3 3 3 2 2 2 2 1 1 1 0 1 1 1 1 1 1 1 2 2 3 3 3 4 4 4 5 5 4 4 4 4 4 3 3 4 3 3
5 4 4 3 4 3 3 3 3 2 2 2 2 1 1 0 0 0 1 1 1 1 1 1 2 2 2 2 3 4 4 4 4 5 5 5 4 4 3 4 4 3 3
4 4 3 3 4 3 3 3 3 3 3 2 2 2 1 1 1 0 0 0 1 1 1 1 1 1 1 2 2 3 3 3 3 3 4 4 5 5 5 4 4 3 3
4 4 3 3 3 4 4 3 3 3 3 2 2 2 1 1 1 1 1 1 1 0 1 1 1 1 1 2 2 2 3 3 2 2 2 3 4 5 5 4 4 4 3
3 3 3 3 3 3 3 3 3 3 2 2 2 2 2 1 1 1 1 1 1 1 1 0 1 1 1 1 2 2 2 2 3 2 2 2 3 4 5 6 6 6 6
2 3 2 2 3 3 3 3 3 2 2 2 2 2 2 1 1 1 1 0 0 1 1 1 1 1 1 1 2 2 2 2 2 2 2 2 2 3 3 4 5 6 8
2 2 2 2 2 3 3 3 3 2 2 2 2 2 2 2 1 1 1 1 0 1 1 1 1 1 1 1 1 1 2 2 2 2 3 3 3 3 3 3 3 3 4
3 2 2 2 2 2 3 3 2 2 2 2 3 2 2 2 2 1 2 1 1 1 1 1 1 2 2 2 2 2 2 2 2 2 2 3 3 4 4 4 4 4 4
4 4 3 3 3 3 3 3 3 3 3 3 3 2 2 2 2 2 2 2 1 2 1 2 2 2 2 2 2 2 2 2 2 2 3 4 4 5 5 5 5 5 4
5 5 4 3 3 3 3 3 3 3 3 3 3 3 2 2 2 2 2 2 1 1 1 2 2 2 2 2 2 2 2 2 2 2 3 3 5 6 6 5 5 6 5
5 5 4 4 4 4 3 3 3 4 3 3 3 3 3 3 3 2 2 2 1 1 1 1 2 1 1 1 2 3 3 2 2 3 3 3 5 6 6 5 5 5 3
5 5 4 4 4 5 4 4 4 4 3 3 3 3 3 3 3 2 2 2 1 1 1 1 2 2 1 1 3 3 3 2 2 2 3 4 4 4 4 4 4 4 3
5 5 5 5 5 5 5 4 5 4 3 3 3 3 3 3 3 2 2 2 2 2 2 1 1 2 1 1 1 2 2 2 2 1 2 3 2 2 2 2 2 2 3
4 4 5 5 5 5 6 6 6 5 4 3 4 4 3 3 3 3 3 2 2 2 2 2 2 2 2 3 4 3 2 2 2 1 1 0 0 0 1 0 1 1 2
5 5 5 5 5 6 6 7 6 5 4 4 4 4 3 3 3 3 3 5 4 4 3 3 3 3 4 4 4 4 4 3 2 1 1 1 1 1 1 1 1 1 1
Wind_Direction
151 119 113 113 112 114 127 144 147 157 151 150 156 147 146 141 94 75 114 130 142 148 134 131 139 139 142 153 150 137 135 134 124 99 73 41 45 62 76 90 101 108 120
126 115 105 98 107 135 147 147 158 155 152 145 145 152 153 146 143 66 88 135 146 148 146 135 148 154 149 152 151 144 146 152 146 132 114 116 5 352 8 84 110 129 130
140 128 122 109 94 114 156 157 152 152 143 132 132 139 147 143 133 144 162 162 156 148 145 150 155 165 163 169 168 163 161 172 183 166 150 157 192 231 264 241 185 149 126
137 139 131 119 121 114 108 109 119 135 149 150 154 166 172 176 184 170 164 168 160 159 162 160 168 172 167 168 180 173 173 171 180 194 191 159 142 155 185 267 222 183 174
138 138 132 132 114 96 92 99 100 116 128 145 155 164 189 188 166 163 162 175 192 178 176 172 168 173 175 178 183 174 176 177 182 182 184 131 76 122 158 212 239 249 233
124 120 115 108 98 93 93 97 120 132 132 143 156 178 191 179 176 167 171 182 186 197 201 184 172 180 184 186 191 185 186 188 183 183 177 172 168 193 179 193 207 227 249
112 107 105 98 104 109 112 127 124 129 139 141 164 195 186 184 197 185 184 185 187 205 205 201 188 187 192 191 190 188 196 195 193 191 197 193 194 182 182 169 192 209 231
99 107 112 111 108 114 116 119 135 139 141 142 156 191 174 183 198 198 195 196 199 204 210 201 194 192 193 192 187 192 202 203 202 203 194 198 202 186 187 184 176 195 229
85 91 97 104 105 107 102 101 105 114 141 144 151 185 179 180 190 188 202 201 200 212 208 203 193 195 190 186 186 196 201 200 203 203 199 199 199 195 202 196 184 183 211
86 82 74 73 88 95 86 68 63 60 50 185 183 180 184 189 193 183 197 206 205 209 206 204 193 190 190 190 189 197 199 198 204 204 205 206 201 195 196 205 205 197 198
100 88 75 67 68 75 84 77 57 49 23 2 170 143 150 186 186 178 184 198 206 198 197 197 191 194 196 192 192 196 199 206 212 211 210 214 202 201 203 203 204 208 193
101 93 81 66 65 57 54 58 50 49 25 12 37 125 131 141 175 175 192 209 194 187 183 184 190 198 202 201 200 206 208 209 211 212 209 215 206 206 204 200 205 210 204
90 85 74 60 59 50 42 39 38 43 32 28 29 41 60 52 218 193 206 206 175 158 165 178 195 202 209 210 212 209 210 212 213 210 209 210 201 208 207 202 206 210 213
84 77 62 52 46 41 29 25 26 29 21 25 33 22 1 344 338 347 34 114 154 149 163 184 193 202 213 216 213 207 208 207 209 205 204 204 206 207 202 204 206 200 197
72 70 54 41 33 31 23 15 17 18 13 15 12 358 352 2 2 5 19 36 38 56 169 166 193 188 201 221 212 209 208 203 208 208 207 209 209 208 203 202 195 189 193
65 59 47 36 26 19 12 5 2 2 2 0 356 357 0 9 4 2 28 39 27 7 14 159 195 207 229 215 208 206 206 204 200 205 212 213 208 208 209 209 202 198 199
55 47 41 25 11 2 359 350 341 351 3 353 352 356 358 6 359 343 2 11 325 334 331 306 244 232 248 212 206 205 196 199 202 201 207 224 221 204 203 211 212 218 220
44 39 25 12 6 2 357 352 349 355 357 351 348 356 5 350 334 330 323 307 286 257 264 272 277 288 301 271 230 210 198 196 205 208 206 209 211 207 196 197 209 227 234
34 31 21 20 14 4 3 358 352 352 355 353 351 355 350 337 321 305 291 292 277 275 271 264 252 261 282 278 243 208 209 209 219 217 214 211 213 218 205 199 214 234 249
27 23 19 26 24 10 9 2 354 351 347 347 347 346 340 334 315 301 297 295 277 258 263 275 258 250 262 265 245 223 214 221 230 230 224 227 231 225 211 207 209 224 233
19 15 19 24 18 10 4 356 354 347 348 355 353 351 349 342 328 309 306 292 284 285 277 277 276 258 264 269 249 235 230 232 237 241 241 238 238 238 232 228 224 229 227
15 13 18 18 13 8 6 2 351 347 353 357 356 353 351 347 342 332 324 318 301 291 279 283 292 285 272 277 259 250 251 256 241 245 250 249 243 244 241 239 236 229 222
12 9 16 17 13 12 15 7 347 349 352 359 359 358 357 356 354 352 343 330 329 311 296 288 291 306 320 301 303 285 283 279 270 262 262 263 253 251 246 242 234 221 208
15 10 14 18 14 12 10 0 353 351 354 1 358 356 1 357 359 357 353 343 332 313 299 290 285 299 314 313 284 275 284 304 311 301 287 283 271 275 258 239 231 227 211
13 16 18 18 12 9 9 4 360 359 2 3 357 356 359 357 358 1 358 346 342 312 299 285 277 274 280 287 294 282 267 261 264 291 316 288 250 259 275 292 272 215 195
15 16 16 12 6 6 6 3 360 2 4 3 0 355 354 353 352 349 353 5 354 351 344 329 309 302 300 302 299 299 298 294 270 279 219 238 245 237 238 237 268 261 214
Height
1481 1481 1482 1482 1483 1484 1485 1486 1486 1487 1488 1489 1490 1491 1492 1494 1496 1497 1498 1500 1501 1503 1504 1505 1507 1509 1511 1513 1515 1517 1519 1521 1523 1525 1526 1528 1530 1531 1533 1535 1536 1537 1538
1478 1479 1479 1480 1481 1481 1482 1483 1484 1485 1486 1487 1488 1490 1491 1492 1494 1495 1496 1498 1499 1500 1501 1503 1505 1507 1509 1511 1512 1515 1516 1518 1520 1522 1524 1525 1528 1528 1530 1532 1533 1534 1536
1476 1477 1477 1478 1478 1479 1480 1481 1482 1482 1483 1484 1486 1487 1489 1490 1492 1493 1494 1495 1497 1498 1499 1501 1503 1504 1506 1508 1509 1511 1513 1515 1518 1520 1522 1523 1523 1525 1527 1528 1530 1531 1532
1473 1474 1475 1475 1476 1477 1478 1478 1479 1480 1481 1482 1483 1485 1486 1487 1488 1490 1491 1493 1494 1496 1497 1498 1500 1502 1503 1505 1507 1509 1511 1513 1514 1517 1519 1520 1521 1523 1523 1525 1526 1528 1529
1471 1472 1472 1473 1474 1475 1476 1476 1477 1478 1479 1480 1481 1482 1484 1485 1487 1488 1489 1490 1491 1493 1494 1496 1497 1499 1500 1502 1504 1505 1507 1509 1511 1513 1515 1516 1518 1519 1520 1521 1523 1524 1526
1469 1470 1471 1472 1473 1473 1474 1475 1475 1476 1477 1478 1479 1480 1482 1483 1484 1485 1486 1487 1488 1490 1491 1492 1494 1495 1497 1499 1501 1502 1504 1506 1508 1509 1511 1513 1514 1516 1517 1518 1519 1520 1522
1468 1469 1469 1470 1471 1472 1472 1473 1474 1475 1475 1476 1477 1478 1479 1480 1481 1482 1483 1484 1485 1487 1488 1489 1491 1492 1494 1495 1497 1499 1500 1502 1504 1506 1507 1509 1511 1513 1514 1515 1516 1517 1518
1467 1468 1469 1470 1470 1471 1471 1472 1472 1473 1474 1474 1475 1475 1476 1477 1479 1480 1481 1481 1483 1484 1485 1486 1488 1489 1490 1492 1493 1495 1497 1499 1500 1502 1504 1505 1507 1509 1510 1512 1513 1513 1514
1466 1467 1468 1469 1470 1470 1471 1471 1471 1472 1472 1472 1473 1474 1474 1475 1476 1477 1478 1479 1480 1481 1482 1483 1484 1486 1487 1488 1490 1491 1493 1495 1497 1498 1500 1501 1503 1505 1506 1508 1509 1511 1510
1466 1467 1468 1468 1469 1469 1470 1470 1470 1471 1471 1471 1471 1472 1473 1474 1474 1475 1475 1476 1477 1478 1479 1480 1482 1482 1484 1485 1486 1487 1489 1491 1492 1494 1496 1497 1499 1500 1502 1504 1505 1506 1507
1466 1466 1467 1468 1468 1469 1469 1469 1469 1469 1470 1470 1470 1470 1471 1471 1472 1472 1473 1474 1474 1475 1476 1477 1478 1479 1480 1481 1482 1484 1485 1487 1488 1490 1491 1493 1494 1496 1497 1499 1500 1501 1503
1466 1467 1467 1467 1467 1467 1467 1468 1468 1468 1468 1468 1468 1469 1469 1469 1470 1470 1471 1471 1472 1472 1473 1474 1475 1476 1477 1477 1479 1480 1481 1482 1484 1485 1487 1488 1490 1491 1493 1494 1496 1497 1498
1465 1466 1467 1467 1466 1466 1466 1466 1466 1467 1466 1467 1467 1467 1467 1467 1467 1468 1468 1469 1469 1469 1470 1471 1471 1472 1473 1474 1475 1476 1477 1478 1479 1481 1482 1484 1485 1487 1488 1490 1491 1492 1494
1464 1465 1466 1466 1466 1466 1466 1466 1465 1465 1465 1465 1465 1465 1465 1465 1465 1465 1465 1466 1466 1467 1467 1467 1468 1468 1469 1470 1471 1472 1473 1474 1475 1477 1478 1479 1481 1482 1484 1485 1486 1488 1489
1464 1465 1465 1465 1465 1465 1465 1465 1464 1464 1463 1463 1463 1463 1463 1463 1463 1463 1463 1463 1464 1464 1464 1464 1465 1465 1466 1466 1467 1468 1469 1470 1471 1472 1474 1475 1476 1478 1479 1480 1482 1483 1484
1464 1464 1464 1464 1464 1464 1463 1463 1463 1462 1462 1461 1461 1461 1461 1461 1461 1461 1461 1461 1461 1461 1461 1461 1462 1462 1462 1463 1464 1465 1465 1466 1467 1468 1469 1471 1472 1473 1475 1476 1477 1479 1480
1463 1463 1463 1463 1463 1462 1462 1462 1461 1461 1460 1460 1459 1459 1458 1458 1458 1459 1458 1458 1458 1458 1458 1458 1459 1459 1459 1459 1460 1461 1462 1462 1463 1464 1465 1466 1467 1468 1470 1471 1472 1473 1474
1462 1462 1462 1461 1461 1461 1460 1460 1459 1459 1458 1458 1457 1457 1456 1456 1456 1456 1456 1455 1455 1455 1455 1455 1455 1456 1456 1456 1457 1457 1458 1459 1459 1460 1461 1462 1462 1464 1465 1466 1467 1467 1469
1461 1461 1460 1460 1459 1459 1458 1458 1457 1457 1456 1456 1455 1455 1454 1454 1453 1453 1453 1452 1452 1452 1452 1452 1452 1452 1452 1453 1453 1454 1454 1455 1455 1456 1457 1457 1458 1459 1460 1461 1462 1463 1464
1459 1459 1458 1458 1457 1457 1456 1456 1455 1455 1454 1453 1453 1452 1452 1451 1451 1450 1450 1450 1449 1449 1449 1449 1449 1449 1449 1450 1450 1450 1451 1451 1451 1451 1452 1453 1454 1455 1455 1456 1457 1457 1458
1458 1457 1457 1456 1456 1455 1455 1454 1453 1453 1452 1452 1451 1450 1449 1449 1448 1448 1447 1447 1447 1446 1446 1446 1446 1446 1446 1447 1447 1447 1447 1447 1447 1447 1447 1448 1449 1450 1451 1452 1452 1452 1454
1457 1456 1455 1455 1454 1454 1453 1452 1451 1451 1450 1449 1448 1448 1447 1446 1446 1445 1444 1444 1444 1443 1443 1443 1443 1443 1443 1443 1443 1444 1444 1444 1444 1443 1444 1444 1445 1446 1446 1447 1447 1448 1449
1456 1455 1454 1453 1453 1452 1452 1450 1450 1449 1448 1447 1446 1445 1444 1444 1443 1443 1442 1441 1441 1441 1440 1440 1440 1440 1440 1440 1440 1440 1440 1440 1440 1440 1440 1441 1441 1441 1441 1442 1442 1443 1443
1456 1455 1454 1452 1452 1451 1450 1449 1448 1447 1446 1445 1444 1443 1442 1441 1441 1440 1440 1439 1439 1438 1438 1438 1437 1437 1437 1437 1437 1437 1437 1437 1437 1437 1437 1437 1437 1437 1437 1437 1437 1437 1438
1455 1454 1453 1452 1451 1450 1449 1448 1447 1446 1445 1443 1443 1442 1441 1440 1439 1438 1438 1437 1437 1437 1436 1436 1435 1434 1434 1434 1434 1434 1433 1433 1433 1433 1433 1433 1433 1433 1432 1432 1433 1433 1434
1455 1453 1452 1451 1450 1449 1448 1447 1446 1445 1443 1442 1441 1440 1439 1438 1437 1436 1436 1435 1435 1434 1434 1433 1433 1432 1432 1431 1431 1430 1430 1430 1430 1430 1429 1429 1429 1429 1429 1429 1429 1430 1430